Location: Larne
(54.8508°N, 5.8183°W)
Time: 13:54:02
(UTC+01:00)

ISS - Pass Details

Date: 02 October 2021
Orbit: 417 x 423 km, 51.6° (Epoch: 16 October)

Event Time Altitude Azimuth Distance (km) Brightness Sun altitude
Rises 20:00:44 0° 275° (W) 2,366 2.4 -10.1°
Reaches altitude 10° 20:03:04 10° 262° (W) 1,501 0.4 -10.4°
Maximum altitude 20:05:52 24° 205° (SSW) 903 -1.9 -10.8°
Drops below altitude 10° 20:08:39 10° 149° (SSE) 1,498 -1.3 -11.2°
Enters shadow 20:08:55 - 147° (SSE) 1,587 -1.2 -11.3°
